Location: Newark
(49.5647°N, 8.2922°E)
Time: 16:56:03
(UTC+00:00)

Vanguard 2 Rocket - All Passes

Search period start: 21 February 2020 00:00
Search period end: 02 March 2020 00:00
Orbit: 554 x 3327 km, 32.9° (Epoch: 20 February)

Date Brightness Start Highest point End Pass type
(mag) Time Alt. Az. Time Alt. Az. Time Alt. Az.
21 Feb - 00:49:30 10° WSW 00:52:59 13° SW 00:55:54 10° SSW night (unlit)
21 Feb - 17:02:35 10° S 17:12:42 17° SSE 17:21:13 10° ESE daylight
21 Feb - 19:13:16 10° SW 19:27:18 30° SSE 19:37:02 10° ESE visible
21 Feb - 21:29:00 10° WSW 21:41:23 33° S 21:49:16 10° SE visible
21 Feb - 23:46:41 10° WSW 23:53:58 20° SSW 23:59:08 10° SSE visible
22 Feb - 16:05:36 10° SSE 16:12:09 13° SE 16:18:10 10° ESE daylight
22 Feb - 18:12:28 10° SSW 18:26:42 28° SSE 18:37:17 10° ESE visible
22 Feb - 20:27:08 10° SW 20:41:16 35° S 20:50:26 10° ESE visible
22 Feb - 22:44:25 10° WSW 22:54:37 27° SSW 23:01:19 10° SSE visible
23 Feb - 17:12:22 10° SSW 17:25:58 24° SSE 17:36:55 10° ESE visible
23 Feb - 19:25:28 10° SW 19:40:50 36° S 19:51:15 10° ESE visible
23 Feb - 21:42:13 10° WSW 21:54:55 33° SSW 22:03:00 10° SE visible
24 Feb - 00:00:58 10° WSW 00:07:09 17° SW 00:11:50 10° S visible
24 Feb - 16:13:18 10° S 16:25:15 20° SE 16:35:39 10° ESE daylight
24 Feb - 18:24:11 10° SW 18:40:07 34° SSE 18:51:42 10° ESE visible
24 Feb - 20:40:05 10° WSW 20:54:49 37° S 21:04:18 10° SE visible
24 Feb - 22:58:09 10° WSW 23:07:55 24° SSW 23:14:33 10° SSE visible
25 Feb - 15:16:00 10° SSE 15:24:37 14° SE 15:32:42 10° ESE daylight
25 Feb - 17:23:30 10° SSW 17:39:15 31° SSE 17:51:39 10° ESE visible
25 Feb - 19:38:08 10° WSW 19:54:20 39° S 20:05:14 10° ESE visible
25 Feb - 21:55:39 10° WSW 22:08:17 32° SSW 22:16:30 10° SE visible
26 Feb - 00:16:16 10° WSW 00:20:07 12° SW 00:23:24 10° SSW visible
26 Feb - 16:23:34 10° SSW 16:38:19 26° SSE 16:50:58 10° ESE daylight
26 Feb - 18:36:32 10° SW 18:53:33 39° S 19:05:47 10° ESE visible
26 Feb - 20:53:17 10° WSW 21:08:15 37° SSW 21:17:58 10° SE visible
26 Feb - 23:12:14 10° WSW 23:21:00 20° SW 23:27:19 10° S visible
27 Feb - 15:24:40 10° S 15:37:30 21° SE 15:49:22 10° ESE daylight
27 Feb - 17:35:26 10° SW 17:52:32 37° SSE 18:05:55 10° ESE visible
27 Feb - 19:51:07 10° WSW 20:07:47 41° S 20:19:01 10° ESE visible
27 Feb - 22:09:19 10° W 22:21:29 28° SSW 22:29:42 10° SSE visible
28 Feb - 14:27:26 10° SSE 14:36:53 16° SE 14:46:11 10° ESE daylight
28 Feb - 16:35:00 10° SSW 16:51:25 33° SSE 17:05:30 10° E daylight
28 Feb - 18:49:18 10° WSW 19:06:56 42° S 19:19:41 10° ESE visible
28 Feb - 21:06:42 10° WSW 21:21:32 35° SSW 21:31:25 10° SE visible
28 Feb - 23:27:01 10° WSW 23:33:52 16° SW 23:39:16 10° SSW visible
29 Feb - 15:35:21 10° SSW 15:50:24 28° SSE 16:04:26 10° E daylight
29 Feb - 17:47:55 10° SW 18:05:49 42° S 18:19:54 10° ESE visible
29 Feb - 20:04:22 10° WSW 20:21:07 40° SSW 20:32:37 10° SE visible
29 Feb - 22:23:18 10° W 22:34:29 24° SW 22:42:27 10° S visible
01 Mar - 14:36:43 10° S 14:49:34 22° SE 15:02:26 10° E daylight
01 Mar - 16:47:08 10° SW 17:04:34 39° SSE 17:19:39 10° ESE daylight
01 Mar - 19:02:22 10° WSW 19:20:17 44° S 19:33:23 10° ESE visible
01 Mar - 21:20:21 10° W 21:34:39 31° SSW 21:44:32 10° SSE visible
01 Mar - 23:44:07 10° WSW 23:46:32 11° SW 23:48:46 10° SW visible
